Temp
14 13 13 12 11 11 10 9 8 8 7 7 6 6 5 5 4 4 4 3 3 2
13 12 12 11 10 10 9 8 7 7 6 6 5 5 5 4 4 4 3 3 3 2
12 11 11 10 10 9 8 7 7 6 6 5 5 4 4 4 3 3 3 2 2 2
10 10 9 9 9 8 7 7 6 6 5 5 4 4 3 3 3 2 2 2 2 1
9 9 9 8 7 7 6 6 5 5 4 4 3 3 3 2 2 2 2 1 1 1
8 8 8 7 6 6 5 5 4 4 3 3 3 2 2 1 1 1 1 1 1 0
7 7 7 6 5 5 5 4 4 3 3 2 2 1 1 1 1 1 0 0 -0 -1
7 6 6 5 5 4 4 3 3 2 2 1 1 0 1 0 0 -0 -1 -1 -2 -2
6 5 5 5 4 4 3 3 2 1 1 1 0 -0 0 0 -1 -2 -2 -2 -2 -2
5 5 4 4 3 3 2 2 1 1 0 -0 -1 -1 -1 -1 -1 -2 -2 -3 -3 -3
4 4 3 3 3 2 2 1 0 0 -0 -1 -1 -2 -2 -1 -2 -2 -2 -2 -2 -3
4 3 3 2 2 1 1 0 -0 -1 -1 -2 -2 -2 -2 -2 -2 -2 -2 -2 -3 -3
3 2 2 1 1 0 -0 -1 -1 -1 -2 -2 -3 -3 -3 -2 -2 -3 -3 -3 -3 -3
2 2 1 1 0 -0 -1 -1 -2 -2 -2 -3 -3 -3 -3 -3 -2 -2 -2 -3 -3 -4
Height
768 772 776 778 780 784 786 787 788 789 789 788 787 786 784 782 781 779 777 775 773 771
769 773 776 778 781 783 786 787 788 788 788 787 786 784 782 780 779 776 773 771 769 767
770 774 777 779 781 784 786 788 788 788 787 786 784 782 780 778 775 773 770 768 765 762
771 775 778 780 782 784 786 786 786 786 785 783 781 779 778 775 772 770 767 764 761 757
773 776 778 780 782 785 785 785 785 785 783 781 779 778 775 772 770 767 763 759 756 752
773 777 779 781 783 785 784 785 784 783 781 779 778 775 772 770 767 763 760 756 751 747
774 777 779 782 783 784 784 784 783 781 780 778 776 772 770 767 764 760 756 752 748 744
774 777 779 781 783 783 783 782 781 780 779 776 772 769 767 763 760 755 752 748 744 740
774 777 779 781 782 782 781 781 781 778 776 772 769 766 763 760 756 752 748 743 738 734
774 777 779 780 780 780 781 780 778 776 773 769 766 763 760 757 753 749 744 740 735 730
774 776 778 779 780 781 779 778 776 773 770 767 764 760 757 753 749 745 741 737 732 727
774 775 777 779 780 779 778 776 774 771 768 765 761 757 754 749 745 740 736 732 728 724
773 776 778 778 778 778 776 774 772 769 766 762 759 755 751 746 742 736 730 727 723 719
775 776 777 778 777 776 774 772 770 766 763 760 757 752 748 744 739 733 727 723 718 714
Wind_Speed
24 23 20 18 14 10 7 4 3 3 4 6 8 10 12 15 16 16 17 17 18 15
23 21 19 16 12 9 6 3 1 3 5 7 10 12 14 16 18 19 18 18 18 16
21 18 16 14 12 8 5 2 2 4 7 10 12 14 16 18 18 18 19 20 20 19
20 17 15 12 9 6 3 2 4 7 9 12 15 17 18 19 18 19 21 22 21 21
19 16 13 11 7 4 2 3 6 8 11 14 16 17 18 17 19 21 22 23 23 21
17 14 12 9 6 3 3 4 6 10 13 16 17 18 17 19 20 21 22 23 23 23
15 12 10 7 4 2 3 5 9 12 14 15 16 17 18 20 21 22 23 24 24 23
14 11 9 6 3 2 4 8 10 12 14 16 18 19 18 20 21 22 22 21 22 23
13 10 7 4 2 3 6 9 11 13 16 18 20 17 18 18 22 20 24 26 25 24
12 9 6 3 2 5 7 11 13 16 18 19 19 16 18 19 19 22 23 25 27 27
11 8 5 3 3 5 10 13 15 17 19 19 18 17 19 20 21 22 23 26 27 28
9 6 4 3 4 8 11 13 16 18 18 18 18 18 19 21 23 25 26 28 27 25
7 5 4 4 6 9 11 14 16 17 17 16 18 20 19 21 23 23 25 23 23 22
7 5 4 4 7 10 13 15 15 17 17 17 19 21 20 20 24 25 25 24 23 24
Wind_Direction
172 173 172 167 162 156 147 122 70 30 9 2 355 353 350 350 345 339 338 336 332 326
170 168 164 158 155 148 143 120 62 8 356 354 353 352 348 344 341 336 336 332 330 319
162 161 157 153 146 142 137 124 20 353 354 354 353 349 345 340 338 336 335 331 324 315
155 154 150 146 140 138 128 42 360 355 355 353 348 345 341 339 341 334 329 328 322 314
152 150 147 142 135 129 90 23 4 358 353 350 346 340 340 340 335 330 326 326 320 312
150 151 146 139 134 111 53 21 7 357 354 348 342 340 342 338 333 329 326 326 322 312
153 152 146 140 126 81 34 13 5 358 350 348 343 345 343 338 333 330 328 327 325 313
154 151 145 138 112 65 27 13 1 350 348 349 349 348 338 335 335 336 335 334 333 328
153 151 146 134 108 48 20 3 355 357 353 348 345 340 334 333 334 337 334 333 333 331
152 150 145 133 75 27 7 357 356 354 349 343 341 337 333 331 329 333 336 334 330 325
151 147 140 103 47 11 0 357 351 346 344 340 341 336 332 328 327 329 330 327 323 319
153 140 118 90 32 9 352 349 345 344 343 340 341 339 331 329 329 326 320 318 317 311
133 127 108 55 22 359 348 345 343 341 344 343 340 341 332 331 326 318 314 316 314 315
125 106 76 36 5 355 349 342 346 344 343 343 346 341 334 331 327 321 321 323 325 322